User: anonymous   Login
Location: Tyler Bend Campground
(35.9875°N, 92.7606°W)
Time: 20:31:34
(UTC-05:00)
Language:

Iridium 39 - Orbit

View from above orbital plane
View from above orbital plane
View from above satellite
View from above satellite

Ground track
Ground track

The orbit data is extracted from the following two-line orbital elements,

1 25042U 97069D   15245.69003479 +.00000223 +00000-0 +72571-4 0  9992
2 25042 086.3958 295.3451 0002119 088.0033 272.1405 14.34231819932368
Epoch (UTC): 02 September 2015 16:33:39
Eccentricity: 0.0002119
inclination: 86.3958°
perigee height: 776 km
apogee height: 779 km
right ascension of ascending node: 295.3451°
argument of perigee: 88.0033°
revolutions per day: 14.34231819
mean anomaly at epoch: 272.1405°
orbit number at epoch: 93236

The dashed part of the orbit path shows where the satellite is in the earth's shadow,  

DLR